TimeEDT,TemperatureF,Dew PointF,Humidity,Sea Level PressureIn,VisibilityMPH,Wind Direction,Wind SpeedMPH,Gust SpeedMPH,PrecipitationIn,Events,Conditions,WindDirDegrees,DateUTC
12:15 AM,74.8,68.0,79,29.97,10.0,SSW,10.4,-,N/A,,Clear,200,2013-06-18 04:15:00
12:35 AM,74.7,68.0,80,29.97,10.0,SSW,10.4,-,N/A,,Clear,210,2013-06-18 04:35:00
12:55 AM,74.5,67.3,78,29.96,10.0,SSW,10.4,-,N/A,,Clear,200,2013-06-18 04:55:00
1:15 AM,73.8,67.1,80,29.96,10.0,SSW,6.9,-,N/A,,Light Drizzle,210,2013-06-18 05:15:00
1:35 AM,72.9,67.1,82,29.95,10.0,SSW,5.8,-,N/A,,Scattered Clouds,200,2013-06-18 05:35:00
1:55 AM,72.7,67.1,83,29.94,10.0,SSW,6.9,-,N/A,,Clear,200,2013-06-18 05:55:00
2:15 AM,72.1,67.6,86,29.94,10.0,SSW,6.9,-,N/A,,Clear,210,2013-06-18 06:15:00
2:35 AM,71.8,67.6,87,29.93,10.0,South,3.5,-,N/A,,Clear,190,2013-06-18 06:35:00
2:55 AM,71.4,67.8,88,29.92,10.0,South,3.5,-,N/A,,Clear,180,2013-06-18 06:55:00
3:15 AM,70.7,67.6,90,29.91,10.0,South,3.5,-,N/A,,Clear,190,2013-06-18 07:15:00
3:35 AM,70.7,67.8,91,29.91,10.0,SSW,5.8,-,N/A,,Clear,200,2013-06-18 07:35:00
3:55 AM,70.7,67.5,89,29.91,10.0,SSW,6.9,-,N/A,,Clear,200,2013-06-18 07:55:00
4:15 AM,70.3,67.3,90,29.91,10.0,South,5.8,-,N/A,,Clear,190,2013-06-18 08:15:00
4:35 AM,70.0,67.5,92,29.91,7.0,South,5.8,-,N/A,,Clear,180,2013-06-18 08:35:00
4:55 AM,69.8,67.6,93,29.91,7.0,South,3.5,-,N/A,,Clear,190,2013-06-18 08:55:00
5:15 AM,69.8,67.5,92,29.91,7.0,South,4.6,-,N/A,,Mostly Cloudy,180,2013-06-18 09:15:00
5:35 AM,70.0,67.5,92,29.91,10.0,SSW,8.1,-,N/A,,Mostly Cloudy,200,2013-06-18 09:35:00
5:55 AM,70.2,67.6,92,29.92,10.0,South,6.9,-,N/A,,Overcast,190,2013-06-18 09:55:00
6:15 AM,70.2,67.5,91,29.93,10.0,SSW,8.1,-,N/A,,Overcast,200,2013-06-18 10:15:00
6:35 AM,70.3,67.5,91,29.93,7.0,SSW,8.1,-,N/A,,Overcast,200,2013-06-18 10:35:00
6:55 AM,70.7,67.5,89,29.93,7.0,SSW,6.9,-,N/A,,Overcast,210,2013-06-18 10:55:00
7:15 AM,70.7,67.6,90,29.93,10.0,SSW,5.8,-,N/A,,Overcast,200,2013-06-18 11:15:00
7:35 AM,70.7,67.5,89,29.93,7.0,SSW,6.9,-,N/A,,Overcast,210,2013-06-18 11:35:00
7:55 AM,70.9,67.6,89,29.93,7.0,SSW,9.2,-,N/A,,Overcast,210,2013-06-18 11:55:00
8:15 AM,71.2,67.8,89,29.93,7.0,SSW,8.1,-,N/A,,Overcast,200,2013-06-18 12:15:00
8:35 AM,71.4,68.0,89,29.93,7.0,SSW,6.9,-,N/A,,Overcast,200,2013-06-18 12:35:00
8:55 AM,71.2,68.0,89,29.93,5.0,SSW,8.1,-,N/A,,Overcast,210,2013-06-18 12:55:00
9:15 AM,71.8,68.0,88,29.92,7.0,SSW,6.9,-,N/A,,Overcast,200,2013-06-18 13:15:00
9:35 AM,72.5,68.2,86,29.91,10.0,South,5.8,-,N/A,,Overcast,190,2013-06-18 13:35:00
9:55 AM,72.7,68.4,86,29.91,10.0,SSW,6.9,-,N/A,,Overcast,210,2013-06-18 13:55:00
10:15 AM,73.2,68.4,85,29.91,10.0,SW,8.1,-,N/A,,Overcast,220,2013-06-18 14:15:00
10:35 AM,73.4,68.2,84,29.91,10.0,SW,6.9,-,N/A,,Overcast,220,2013-06-18 14:35:00
10:55 AM,73.8,68.5,84,29.91,10.0,SW,6.9,-,N/A,Rain,Light Rain,230,2013-06-18 14:55:00
11:15 AM,74.3,68.9,83,29.91,10.0,SSW,4.6,-,N/A,,Light Drizzle,210,2013-06-18 15:15:00
11:35 AM,74.5,68.9,83,29.91,10.0,SW,6.9,-,N/A,,Overcast,220,2013-06-18 15:35:00
11:55 AM,74.7,68.7,82,29.91,10.0,SSW,8.1,-,N/A,,Overcast,210,2013-06-18 15:55:00
12:15 PM,74.5,68.7,82,29.90,10.0,SW,9.2,-,N/A,,Overcast,220,2013-06-18 16:15:00
12:35 PM,75.0,68.5,80,29.89,10.0,SSW,11.5,17.3,N/A,,Overcast,210,2013-06-18 16:35:00
12:55 PM,75.2,68.5,80,29.89,10.0,SSW,11.5,-,N/A,,Overcast,200,2013-06-18 16:55:00
1:15 PM,76.6,69.1,77,29.87,10.0,South,9.2,-,N/A,,Mostly Cloudy,190,2013-06-18 17:15:00
1:35 PM,77.2,68.9,76,29.87,10.0,SSW,10.4,-,N/A,,Mostly Cloudy,210,2013-06-18 17:35:00
1:55 PM,77.0,68.7,75,29.87,10.0,SSW,10.4,-,N/A,,Overcast,210,2013-06-18 17:55:00
2:15 PM,77.4,68.0,73,29.86,10.0,SSW,10.4,-,N/A,,Mostly Cloudy,210,2013-06-18 18:15:00
2:35 PM,78.1,68.4,72,29.85,10.0,SSW,9.2,-,N/A,,Scattered Clouds,210,2013-06-18 18:35:00
2:55 PM,80.4,69.4,69,29.84,10.0,SSW,10.4,-,N/A,,Scattered Clouds,200,2013-06-18 18:55:00
3:15 PM,79.3,68.2,69,29.84,10.0,SSW,8.1,-,N/A,,Mostly Cloudy,210,2013-06-18 19:15:00
3:35 PM,78.4,68.2,71,29.83,10.0,South,6.9,-,N/A,,Overcast,190,2013-06-18 19:35:00
3:55 PM,78.8,69.4,73,29.82,10.0,SW,8.1,-,N/A,Rain,Light Rain,220,2013-06-18 19:55:00
4:15 PM,81.5,69.6,67,29.81,10.0,SSW,5.8,-,N/A,,Scattered Clouds,200,2013-06-18 20:15:00
4:35 PM,80.4,68.7,67,29.80,10.0,South,6.9,-,N/A,,Scattered Clouds,190,2013-06-18 20:35:00
4:55 PM,81.1,68.9,66,29.80,10.0,SSW,5.8,-,N/A,,Scattered Clouds,210,2013-06-18 20:55:00
5:15 PM,80.1,68.4,67,29.79,10.0,South,4.6,-,N/A,,Scattered Clouds,170,2013-06-18 21:15:00
5:35 PM,79.2,69.1,71,29.78,10.0,East,3.5,-,N/A,,Mostly Cloudy,90,2013-06-18 21:35:00
5:55 PM,74.3,70.0,86,29.78,4.0,Calm,Calm,-,0.22,Rain,Heavy Rain,0,2013-06-18 21:55:00
6:15 PM,72.7,68.9,88,29.81,1.5,WSW,9.2,17.3,0.21,Rain,Heavy Rain,240,2013-06-18 22:15:00
6:35 PM,70.0,67.5,92,29.81,1.5,NW,4.6,17.3,0.63,Rain,Heavy Rain,320,2013-06-18 22:35:00
6:55 PM,69.8,67.5,92,29.81,1.2,Calm,Calm,-,0.84,Rain,Heavy Rain,0,2013-06-18 22:55:00
7:15 PM,70.7,68.7,93,29.82,7.0,NNW,4.6,-,0.03,,Overcast,330,2013-06-18 23:15:00
7:35 PM,70.2,68.0,93,29.82,10.0,NNW,5.8,-,0.03,,Overcast,340,2013-06-18 23:35:00
7:55 PM,70.2,68.0,93,29.82,10.0,North,4.6,-,0.03,,Overcast,360,2013-06-18 23:55:00
8:15 PM,70.0,68.0,93,29.82,10.0,North,4.6,-,N/A,,Overcast,10,2013-06-19 00:15:00
8:35 PM,69.8,67.5,92,29.82,10.0,NNE,4.6,-,N/A,,Mostly Cloudy,30,2013-06-19 00:35:00
8:55 PM,69.4,67.3,93,29.83,10.0,Calm,Calm,-,N/A,,Clear,0,2013-06-19 00:55:00
9:15 PM,69.3,67.3,93,29.84,10.0,North,3.5,-,N/A,,Scattered Clouds,350,2013-06-19 01:15:00
9:35 PM,69.1,67.3,94,29.85,10.0,NNW,3.5,-,N/A,,Mostly Cloudy,340,2013-06-19 01:35:00
9:55 PM,68.4,66.6,94,29.86,10.0,North,4.6,-,N/A,,Scattered Clouds,10,2013-06-19 01:55:00
10:15 PM,68.0,64.4,88,29.88,10.0,NNE,3.5,-,N/A,,Clear,20,2013-06-19 02:15:00
10:35 PM,67.3,64.9,92,29.89,10.0,Calm,Calm,-,N/A,,Clear,0,2013-06-19 02:35:00
10:55 PM,67.5,65.5,93,29.89,7.0,North,3.5,-,N/A,,Mostly Cloudy,350,2013-06-19 02:55:00
11:15 PM,67.6,65.3,92,29.90,7.0,North,3.5,-,N/A,,Overcast,10,2013-06-19 03:15:00
11:35 PM,67.5,65.1,92,29.90,10.0,Calm,Calm,-,N/A,,Overcast,0,2013-06-19 03:35:00
11:55 PM,67.3,64.9,92,29.90,10.0,North,3.5,-,N/A,,Overcast,350,2013-06-19 03:55:00